Tracking 30102 objects as of 12-Dec-2024
HD Live streaming from Space Station
objects crossing your sky now

STARLINK-32595

Track STARLINK-32595 now!
10-day predictions
STARLINK-32595 is classified as:


NORAD ID: 62037
Int'l Code: 2024-216F
Perigee: 408.4 km
Apogee: 409.9 km
Inclination: 43.0 °
Period: 92.6 minutes
Semi major axis: 6780 km
RCS: Unknown
Launch date: November 21, 2024
Source: United States (US)
Launch site: AIR FORCE EASTERN TEST RANGE (AFETR)
Your satellite tracking list
Your tracking list is empty




NASA's NSSDC Master Catalog

Two Line Element Set (TLE):
1 62037U 24216F   24346.91667824 -.01466945  00000-0 -23818-1 0  9995
2 62037  42.9992 316.6894 0001151 255.1228 344.6389 15.55047536  4377
Source of the keplerian elements: AFSPC